Location: Aufkirchen
(47.9603°N, 11.3653°E)
Time: 07:21:36
(UTC+01:00)

Transit 4A - Pass Details

Date: 04 December 2020
Orbit: 864 x 980 km, 66.8° (Epoch: 25 January)

Event Time Altitude Azimuth Distance (km) Brightness Sun altitude
Rises 15:03:56 0° 325° (NW) 3,685 10.9 9.1°
Reaches altitude 10° 15:06:33 10° 328° (NNW) 2,727 10.2 8.8°
Maximum altitude 15:12:55 68° 52° (NE) 1,028 8.1 8.1°
Drops below altitude 10° 15:19:06 10° 135° (SE) 2,649 10.3 7.3°
Sets 15:21:36 0° 138° (SE) 3,572 11.0 7.0°
